Location: Cortada Guamacho
(10.5667°N, 67.0833°W)
Time: 22:34:36
(UTC+00:00)

SWIFT - Pass Details

Date: 07 July 2022
Orbit: 539 x 553 km, 20.6° (Epoch: 15 August)

Event Time Altitude Azimuth Distance (km) Brightness Sun altitude
Rises 00:57:18 0° 277° (W) 2,706 6.8 -27.6°
Reaches altitude 10° 00:59:49 10° 289° (WNW) 1,811 5.9 -28.1°
Enters shadow 01:03:15 28° 343° (NNW) 1,038 4.1 -28.8°
